Regional Weather Roundup
Issued by NWS Charleston, WV

Home | Current Version | Previous Version | Graphics & Text | Print | Product List | Glossary On
Versions: 1 2 3 4 5 6 7 8 9 10 11 12 13 14 15 16 17 18 19 20 21 22 23 24 25 26 27 28 29 30 31 32 33 34 35 36 37 38 39 40 41 42 43 44 45 46 47 48 49 50
000
ASUS41 KRLX 060210
RWRRLX
West Virginia Regional Weather Roundup
National Weather Service Charleston WV
900 PM EST THU MAR 05 2015

Note: "fair" indicates few or no clouds below 12,000 feet with no
significant weather and/or obstructions to visibility.

WVZ003-060300-
Northern Panhandle of West Virginia

CITY           SKY/WX    TMP DP  RH WIND       PRES   REMARKS
WHEELING       CLEAR     11   0  61 NW5       30.46R WCI   3
$$

WVZ009-060300-
Northwest West Virginia

CITY           SKY/WX    TMP DP  RH WIND       PRES   REMARKS
PARKERSBURG    CLOUDY    15  10  80 CALM      30.52R
$$

WVZ006-060300-
Western West Virginia

CITY           SKY/WX    TMP DP  RH WIND       PRES   REMARKS
HUNTINGTON     CLEAR     15  10  80 CALM      30.50R
$$

WVZ015-060300-
West Central West Virginia

CITY           SKY/WX    TMP DP  RH WIND       PRES   REMARKS
CHARLESTON     LGT SNOW  19  15  84 N3        30.48R FOG
$$

WVZ022-031-060300-
North Central West Virginia

CITY           SKY/WX    TMP DP  RH WIND       PRES   REMARKS
CLARKSBURG     NOT AVBL
MORGANTOWN     NOT AVBL
$$

WVZ025-035-042-045-060300-
Southern West Virginia

CITY           SKY/WX    TMP DP  RH WIND       PRES   REMARKS
BECKLEY        FLURRIES  13   8  81 NW10      30.33R WCI   0
LOGAN          FLURRIES  16  12  86 NW6       30.40R WCI   7
BLUEFIELD      FLURRIES  18  12  77 NW9G16    30.29R WCI   7
LEWISBURG      CLOUDY    19  13  76 N9        30.30R WCI   9
$$

WVZ047-060300-
Northern Mountains of West Virginia

CITY           SKY/WX    TMP DP  RH WIND       PRES   REMARKS
ELKINS         LGT SNOW  13   8  81 N8        30.38R WCI   2
$$

WVZ052-060300-
Eastern Panhandle of West Virginia

CITY           SKY/WX    TMP DP  RH WIND       PRES   REMARKS
MARTINSBURG    CLOUDY    22   7  52 NW10      30.40R
PETERSBURG       N/A    N/A N/A N/A MISG        N/A
$$


USA.gov is the U.S. government's official web portal to all federal, state and local government web resources and services.